Starlink 32108

operational
NORAD ID: 59682 Int'l Des: 2024-086 Owner: SPXS Country: US Constellation: starlink
LEOCIRCULAR

Starlink 32108について

説明を読み込み中...

リアルタイム位置

3D地球を読み込み中...

次回通過

高度履歴

Altitude vs Time

uPlot chart will show altitude changes over time

軌道要素

1 59682U 24086A 26034.97383124 -.00000172 00000-0 32514-5 0 9993
2 59682 42.9993 253.9100 0000798 275.7709 84.3051 15.27576570 98901
Epoch: Feb 3, 2026 • Age: 10 hours

現在のステータス

高度 485.0 km
速度 7.62 km/s
衛星直下点 -11.74°S, 165.02°E
打ち上げ日 May 8, 2024
運用期間 1.7 years
タイプ internet

技術仕様

分類 Payload
質量 730.00 kg
乾燥質量 700.00 kg
総質量 730.00 kg
長さ 0.30 m
直径 4.10 m
スパン 29.00 m
形状 Box + pan
製造者 SPXS
バスタイプ Starlink V2M
フェーズステータス In Orbit
所有者/国 SPXS/US

大規模コンステレーション

Loading constellations...